CW7427 Weather Reports


Display with metric or nautical units.
time (UTC)temp
F
wind
direction
speed
MPH
gust
MPH
rain 1hr
in
rain 24hr
in
rain mn
in
humidity
%
barometer
mb
20260503025337 77 65 1.0 6.0 0.00 0.00 0.00 57 1017.8
20260503024830 76 324 1.0 4.0 0.00 0.00 0.00 57 1017.9
20260503024324 76 331 0.0 5.0 0.00 0.00 0.00 57 1018.0
20260503023814 76 326 0.0 5.0 0.00 0.00 0.00 59 1018.0
20260503023531 76 34 1.0 5.0 0.00 0.00 0.00 57 1018.1
20260503022754 77 16 1.0 5.0 0.00 0.00 0.00 57 1018.2
20260503022244 77 355 0.0 4.0 0.00 0.00 0.00 55 1018.3
20260503021742 77 355 0.0 4.0 0.00 0.00 0.00 56 1018.3
20260503021232 77 355 0.0 3.0 0.00 0.00 0.00 56 1018.5
20260503020726 77 20 0.0 2.0 0.00 0.00 0.00 57 1018.7
20260503020217 77 22 0.0 3.0 0.00 0.00 0.00 57 1018.8
20260503015706 77 22 1.0 6.0 0.00 0.00 0.00 58 1018.9
20260503015200 76 83 0.0 6.0 0.00 0.00 0.00 59 1018.9
20260503014654 76 83 0.0 2.0 0.00 0.00 0.00 59 1019.0
20260503014146 75 84 0.0 6.0 0.00 0.00 0.00 61 1019.1
20260503013638 75 87 1.0 7.0 0.00 0.00 0.00 59 1019.2
20260503013603 75 92 1.0 7.0 0.00 0.00 0.00 58 1019.3
20260503012618 76 49 1.0 5.0 0.00 0.00 0.00 58 1019.3
20260503012112 76 38 1.0 8.0 0.00 0.00 0.00 59 1019.5
20260503011838 75 20 1.0 8.0 0.00 0.00 0.00 58 1019.7
20260503011056 76 91 1.0 6.0 0.00 0.00 0.00 60 1019.7
20260503010549 75 52 1.0 5.0 0.00 0.00 0.00 60 1019.8
20260503010040 75 51 1.0 6.0 0.00 0.00 0.00 60 1019.9
20260503005536 75 75 1.0 7.0 0.00 0.00 0.00 61 1020.0
20260503005033 75 78 0.0 4.0 0.00 0.00 0.00 61 1020.0
20260503004530 75 62 0.0 4.0 0.00 0.00 0.00 62 1020.0
20260503004030 75 59 0.0 2.0 0.00 0.00 0.00 63 1020.1
20260503003526 75 68 0.0 2.0 0.00 0.00 0.00 64 1020.2
20260503003022 74 68 0.0 5.0 0.00 0.00 0.00 63 1020.3
20260503002735 74 74 0.0 5.0 0.00 0.00 0.00 65 1020.4
20260503002016 74 74 0.0 1.0 0.00 0.00 0.00 67 1020.3
20260503001516 73 74 0.0 1.0 0.00 0.00 0.00 67 1020.2
20260503001232 73 74 0.0 1.0 0.00 0.00 0.00 67 1020.2
20260503000458 73 74 0.0 2.0 0.00 0.00 0.00 70 1020.2
20260502235951 73 74 0.0 2.0 0.00 0.00 0.00 69 1020.4
20260502235442 72 74 0.0 1.0 0.00 0.00 0.00 71 1020.3
20260502234932 71 74 0.0 0.0 0.00 0.00 0.00 76 1020.3
20260502234433 71 74 0.0 1.0 0.00 0.00 0.00 73 1020.4
20260502233916 71 74 0.0 7.0 0.00 0.00 0.00 73 1020.5
20260502233412 71 74 0.0 7.0 0.00 0.00 0.00 72 1020.6
20260502232842 70 90 0.0 1.0 0.00 0.00 0.00 73 1020.8
20260502232343 71 90 0.0 0.0 0.00 0.00 0.00 73 1020.8
20260502231840 70 90 0.0 2.0 0.00 0.00 0.00 74 1020.9
20260502231339 70 90 0.0 2.0 0.00 0.00 0.00 75 1020.8
20260502230833 70 92 0.0 2.0 0.00 0.00 0.00 75 1020.9
20260502230332 69 92 0.0 2.0 0.00 0.00 0.00 78 1020.9
20260502230028 69 97 0.0 2.0 0.00 0.00 0.00 79 1021.0
20260502225255 68 97 0.0 2.0 0.00 0.00 0.00 80 1020.9
20260502224756 68 98 0.0 1.0 0.00 0.00 0.00 81 1020.8
20260502224258 67 98 0.0 1.0 0.00 0.00 0.00 82 1020.9
20260502223753 67 98 0.0 0.0 0.00 0.00 0.00 83 1021.0
20260502223248 67 98 0.0 0.0 0.00 0.00 0.00 84 1021.0
20260502222741 66 98 0.0 0.0 0.00 0.00 0.00 86 1020.9
20260502222234 66 98 0.0 0.0 0.00 0.00 0.00 87 1020.8
20260502221731 65 98 0.0 0.0 0.00 0.00 0.00 89 1020.8
20260502221221 64 98 0.0 0.0 0.00 0.00 0.00 91 1020.7
20260502220924 63 98 0.0 0.0 0.00 0.00 0.00 93 1020.7
20260502220154 61 98 0.0 0.0 0.00 0.00 0.00 94 1020.6
20260502215653 60 98 0.0 0.0 0.00 0.00 0.00 93 1020.5
20260502215147 60 98 0.0 0.0 0.00 0.00 0.00 93 1020.4
20260502214639 60 98 0.0 0.0 0.00 0.00 0.00 93 1020.4
20260502214135 59 98 0.0 0.0 0.00 0.00 0.00 92 1020.4
20260502213619 59 98 0.0 0.0 0.00 0.00 0.00 92 1020.4
20260502213119 58 98 0.0 0.0 0.00 0.00 0.00 92 1020.3
20260502212608 58 98 0.0 0.0 0.00 0.00 0.00 92 1020.1
20260502212042 58 98 0.0 0.0 0.00 0.00 0.00 92 1020.1
20260502211540 58 98 0.0 0.0 0.00 0.00 0.00 92 1020.1
20260502211042 58 98 0.0 0.0 0.00 0.00 0.00 91 1020.2
20260502210537 58 98 0.0 0.0 0.00 0.00 0.00 91 1020.0
20260502210038 58 98 0.0 0.0 0.00 0.00 0.00 91 1020.1
20260502205537 58 98 0.0 0.0 0.00 0.00 0.00 91 1020.0
20260502205040 58 98 0.0 0.0 0.00 0.00 0.00 91 1020.0
20260502205011 58 98 0.0 0.0 0.00 0.00 0.00 91 1019.8
20260502204027 58 98 0.0 0.0 0.00 0.00 0.00 91 1019.9
20260502203525 58 98 0.0 0.0 0.00 0.00 0.00 91 1019.9
20260502203025 58 98 0.0 0.0 0.00 0.00 0.00 91 1019.9
20260502202519 58 98 0.0 0.0 0.00 0.00 0.00 91 1019.9
20260502201943 58 98 0.0 0.0 0.00 0.00 0.00 91 1020.0
20260502201438 58 98 0.0 0.0 0.00 0.00 0.00 91 1020.2
20260502200935 58 98 0.0 0.0 0.00 0.00 0.00 91 1020.2
20260502200425 58 98 0.0 0.0 0.00 0.00 0.00 91 1020.1
20260502200134 58 98 0.0 0.0 0.00 0.00 0.00 91 1020.0
20260502195355 58 98 0.0 0.0 0.00 0.00 0.00 91 1020.0
20260502194848 58 98 0.0 0.0 0.00 0.00 0.00 91 1020.1
20260502194341 59 98 0.0 0.0 0.00 0.00 0.00 91 1020.0
20260502193833 59 98 0.0 0.0 0.00 0.00 0.00 91 1020.0
20260502193333 59 98 0.0 0.0 0.00 0.00 0.00 91 1019.9
20260502192832 59 98 0.0 0.0 0.00 0.00 0.00 90 1019.8
20260502192316 59 98 0.0 0.0 0.00 0.00 0.00 90 1019.8
20260502191817 59 98 0.0 0.0 0.00 0.00 0.00 90 1019.8
20260502191241 59 98 0.0 0.0 0.00 0.00 0.00 90 1019.8
20260502190739 59 98 0.0 0.0 0.00 0.00 0.00 90 1019.9
20260502190226 59 98 0.0 0.0 0.00 0.00 0.00 90 1019.8
20260502185951 59 98 0.0 0.0 0.00 0.00 0.00 89 1019.8
20260502185444 59 98 0.0 0.0 0.00 0.00 0.00 89 1019.6
20260502184700 59 98 0.0 0.0 0.00 0.00 0.00 90 1019.6
20260502184153 59 98 0.0 0.0 0.00 0.00 0.00 89 1019.7
20260502183643 59 98 0.0 0.0 0.00 0.00 0.00 89 1019.6
20260502183135 59 98 0.0 0.0 0.00 0.00 0.00 89 1019.7
20260502182631 59 98 0.0 0.0 0.00 0.00 0.00 89 1019.8
20260502182119 59 98 0.0 0.0 0.00 0.00 0.00 89 1019.8
20260502181611 59 98 0.0 0.0 0.00 0.00 0.00 89 1019.7
20260502181037 60 98 0.0 0.0 0.00 0.00 0.00 89 1019.8
20260502180506 60 98 0.0 0.0 0.00 0.00 0.00 89 1019.9
20260502170503 61 98 0.0 0.0 0.00 0.01 0.00 88 1019.8
20260502164135 61 98 0.0 0.0 0.00 0.01 0.00 88 1020.0
20260502163616 61 98 0.0 0.0 0.00 0.01 0.00 88 1020.1
20260502163603 62 98 0.0 0.0 0.00 0.01 0.00 88 1020.3
20260502162603 62 98 0.0 0.0 0.00 0.01 0.00 87 1020.4
20260502162101 62 98 0.0 0.0 0.00 0.01 0.00 87 1020.2
20260502161819 62 98 0.0 0.0 0.00 0.01 0.00 88 1020.2
20260502161525 62 98 0.0 0.0 0.00 0.01 0.00 88 1020.3
20260502160541 63 98 0.0 0.0 0.00 0.01 0.00 88 1020.3
20260502151906 64 98 0.0 0.0 0.00 0.01 0.00 89 1020.6
20260502151400 64 98 0.0 0.0 0.00 0.01 0.00 89 1020.7
20260502150842 64 98 0.0 0.0 0.00 0.01 0.00 89 1020.7
20260502150332 64 98 0.0 1.0 0.00 0.01 0.00 89 1020.6
20260502130528 64 98 0.0 0.0 0.00 0.01 0.01 83 1021.2
20260502123443 65 98 0.0 0.0 0.00 0.01 0.01 83 1021.2
20260502122945 65 98 0.0 0.0 0.00 0.01 0.01 83 1021.2
20260502122705 65 98 0.0 0.0 0.00 0.01 0.01 83 1021.3
20260502122156 66 98 0.0 0.0 0.00 0.01 0.01 83 1021.3
20260502121646 66 98 0.0 0.0 0.00 0.01 0.01 84 1021.4
20260502120843 66 98 0.0 0.0 0.00 0.01 0.01 84 1021.6
20260502120344 66 98 0.0 0.0 0.00 0.01 0.01 84 1021.7
20260502120108 66 98 0.0 0.0 0.00 0.01 0.01 84 1021.7
20260502115330 66 98 0.0 0.0 0.00 0.01 0.01 83 1021.7
20260502114830 66 98 0.0 0.0 0.00 0.01 0.01 83 1021.6
20260502114317 66 98 0.0 0.0 0.00 0.01 0.01 83 1021.6
20260502113817 66 98 0.0 0.0 0.00 0.01 0.01 83 1021.6
20260502113239 66 98 0.0 0.0 0.00 0.01 0.01 83 1021.5
20260502112739 66 98 0.0 0.0 0.00 0.01 0.01 83 1021.5
20260502112442 66 98 0.0 0.0 0.00 0.01 0.01 83 1021.5
20260502112326 66 98 0.0 0.0 0.00 0.01 0.01 83 1021.4
20260502111212 66 98 0.0 1.0 0.00 0.01 0.01 82 1021.6
20260502110658 67 98 0.0 1.0 0.00 0.01 0.01 82 1021.6
20260502110146 67 98 0.0 0.0 0.00 0.01 0.01 82 1021.6
20260502105646 67 98 0.0 2.0 0.00 0.01 0.01 82 1021.5
20260502105138 67 98 0.0 2.0 0.00 0.01 0.01 81 1021.5
20260502104904 67 98 0.0 1.0 0.00 0.01 0.01 81 1021.5
20260502104124 67 98 0.0 0.0 0.00 0.01 0.01 80 1021.7
20260502103601 67 98 0.0 0.0 0.00 0.01 0.01 80 1021.8
20260502103309 67 98 0.0 0.0 0.00 0.01 0.01 80 1021.8
20260502102802 67 98 0.0 0.0 0.00 0.01 0.01 80 1021.8
20260502102033 68 98 0.0 0.0 0.00 0.01 0.01 80 1021.7
20260502101531 68 98 0.0 0.0 0.00 0.01 0.01 80 1021.6
20260502101004 68 98 0.0 0.0 0.00 0.01 0.01 80 1021.4
20260502100442 68 98 0.0 0.0 0.00 0.01 0.01 80 1021.3
20260502090837 69 107 0.0 1.0 0.00 0.01 0.01 80 1021.2
20260502090331 69 107 0.0 2.0 0.00 0.01 0.01 80 1021.2
20260502071534 71 50 1.0 5.0 0.00 0.01 0.01 79 1020.6
20260502071028 71 34 1.0 6.0 0.00 0.01 0.01 78 1020.5
20260502070521 71 132 1.0 6.0 0.00 0.01 0.01 78 1020.6
20260502070007 71 52 1.0 5.0 0.00 0.01 0.01 78 1020.6
20260502065501 71 85 1.0 6.0 0.00 0.01 0.01 78 1020.7
20260502064956 71 52 1.0 8.0 0.00 0.01 0.01 77 1020.6
20260502064445 72 304 1.0 8.0 0.00 0.01 0.01 77 1020.6
20260502063934 72 14 1.0 6.0 0.00 0.01 0.01 77 1020.6
20260502063430 72 18 0.0 5.0 0.00 0.01 0.01 76 1020.6
20260502062919 72 70 1.0 8.0 0.00 0.01 0.01 76 1020.6
20260502062413 72 74 1.0 8.0 0.00 0.01 0.01 76 1020.6
20260502061907 73 46 0.0 5.0 0.00 0.01 0.01 76 1020.6
20260502061619 73 32 0.0 5.0 0.00 0.01 0.01 76 1020.5
20260502060847 72 15 1.0 5.0 0.00 0.01 0.01 75 1020.5
20260502060341 73 341 1.0 5.0 0.00 0.01 0.01 75 1020.6
20260502055836 73 79 1.0 6.0 0.00 0.01 0.01 75 1020.6
20260502055548 73 70 0.0 6.0 0.00 0.01 0.01 75 1020.7
20260502054819 73 69 0.0 5.0 0.00 0.01 0.01 75 1020.7
20260502054309 73 341 0.0 3.0 0.00 0.01 0.01 74 1020.6
20260502053759 73 355 0.0 5.0 0.00 0.01 0.01 74 1020.6
20260502053514 73 347 0.0 5.0 0.00 0.01 0.01 74 1020.6
20260502052739 73 55 0.0 5.0 0.00 0.01 0.01 74 1020.6
20260502052229 73 53 0.0 5.0 0.00 0.01 0.01 73 1020.7
20260502051727 73 29 0.0 4.0 0.00 0.01 0.01 73 1020.7
20260502051229 73 336 1.0 5.0 0.00 0.01 0.01 73 1020.8
20260502050717 73 329 1.0 7.0 0.00 0.01 0.01 72 1020.9
20260502050433 73 342 1.0 7.0 0.00 0.01 0.01 71 1020.8
20260502045715 73 84 1.0 6.0 0.00 0.01 0.01 71 1020.7
20260502045215 74 311 1.0 6.0 0.00 0.01 0.01 70 1020.8
20260502044709 74 82 1.0 6.0 0.00 0.01 0.01 71 1020.8
20260502044205 74 351 0.0 4.0 0.00 0.01 0.01 72 1020.8
20260502043707 74 336 1.0 5.0 0.00 0.01 0.01 71 1020.7
20260502043207 74 41 1.0 5.0 0.00 0.01 0.01 71 1020.8
20260502042701 74 5 0.0 5.0 0.00 0.01 0.01 71 1020.8
20260502042159 74 319 1.0 6.0 0.00 0.01 0.01 71 1020.9
20260502041658 74 293 1.0 6.0 0.00 0.01 0.01 71 1020.9
20260502041157 74 68 1.0 6.0 0.00 0.01 0.01 72 1021.0
20260502040657 74 29 1.0 6.0 0.00 0.01 0.01 72 1021.0
20260502040158 74 323 1.0 7.0 0.00 0.01 0.01 73 1020.9
20260502035646 74 319 1.0 7.0 0.00 0.01 0.01 73 1020.9
20260502035137 74 166 2.0 7.0 0.00 0.01 0.01 72 1020.9
20260502034641 74 34 1.0 6.0 0.00 0.01 0.01 72 1020.9
20260502034135 74 11 1.0 5.0 0.00 0.01 0.01 72 1021.0
20260502033636 74 9 1.0 7.0 0.00 0.01 0.01 71 1021.0
20260502033131 74 311 1.0 7.0 0.00 0.01 0.01 71 1021.1
20260502032626 74 9 1.0 7.0 0.00 0.01 0.01 72 1021.1
20260502032123 74 0 1.0 8.0 0.00 0.01 0.01 74 1021.2
20260502031615 73 105 0.0 8.0 0.00 0.01 0.01 75 1021.2
20260502031117 73 0 0.0 4.0 0.00 0.01 0.01 77 1021.2
20260502030606 72 16 1.0 5.0 0.00 0.01 0.01 76 1021.3
20260502030050 72 16 1.0 8.0 0.00 0.01 0.01 77 1021.4
20260502025536 72 313 1.0 8.0 0.00 0.01 0.01 77 1021.6